User: anonymous   Login
Location: Unspecified
(0.0000°N, 0.0000°E)
Time: 16:00:44
(UTC+00:00)
Language:

AIST 1 - Orbit

View from above orbital plane
View from above orbital plane
View from above satellite
View from above satellite

Ground track
Ground track

The orbit data is extracted from the following two-line orbital elements,

1 39492U 13078C   18261.16412465  .00000137  00000-0  12336-4 0  9993
2 39492  82.4168 104.8030 0019052 322.1134  37.8741 14.87748757256301
Epoch (UTC): 18 September 2018 03:56:20
Eccentricity: 0.0019052
inclination: 82.4168°
perigee height: 591 km
apogee height: 618 km
right ascension of ascending node: 104.8030°
argument of perigee: 322.1134°
revolutions per day: 14.87748757
mean anomaly at epoch: 37.8741°
orbit number at epoch: 25630

The dashed part of the orbit path shows where the satellite is in the earth's shadow,  

DLR